| time (UTC) | temp C | wind direction | speed KPH | gust KPH | rain 1hr cm | rain 24hr cm | rain mn cm | humidity % | barometer mb |
| 20260503202551 | 15 | 329 | 0.0 | 0.0 | 0.00 | 0.00 | 0.00 | 92 | 1014.3 |
| 20260503202310 | 15 | 329 | 0.0 | 0.0 | 0.00 | 0.00 | 0.00 | 92 | 1014.2 |
| 20260503201539 | 15 | 329 | 0.0 | 0.0 | 0.00 | 0.00 | 0.00 | 92 | 1014.1 |
| 20260503201039 | 15 | 329 | 0.0 | 0.0 | 0.00 | 0.00 | 0.00 | 92 | 1013.9 |
| 20260503200753 | 15 | 329 | 0.0 | 0.0 | 0.00 | 0.00 | 0.00 | 92 | 1013.8 |
| 20260503200021 | 15 | 329 | 0.0 | 0.0 | 0.00 | 0.00 | 0.00 | 92 | 1013.8 |
| 20260503195517 | 15 | 329 | 0.0 | 0.0 | 0.00 | 0.00 | 0.00 | 92 | 1013.7 |
| 20260503195013 | 15 | 329 | 0.0 | 0.0 | 0.00 | 0.00 | 0.00 | 92 | 1013.7 |
| 20260503194707 | 15 | 329 | 0.0 | 0.0 | 0.00 | 0.00 | 0.00 | 92 | 1013.7 |
| 20260503193937 | 15 | 329 | 0.0 | 0.0 | 0.00 | 0.00 | 0.00 | 92 | 1013.6 |
| 20260503193427 | 15 | 329 | 0.0 | 0.0 | 0.00 | 0.00 | 0.00 | 92 | 1013.4 |
| 20260503192847 | 15 | 329 | 0.0 | 0.0 | 0.00 | 0.00 | 0.00 | 92 | 1013.5 |
| 20260503192338 | 15 | 329 | 0.0 | 0.0 | 0.00 | 0.00 | 0.00 | 92 | 1013.5 |
| 20260503191821 | 15 | 329 | 0.0 | 0.0 | 0.00 | 0.00 | 0.00 | 92 | 1013.5 |
| 20260503191506 | 15 | 329 | 0.0 | 0.0 | 0.00 | 0.00 | 0.00 | 92 | 1013.5 |
| 20260503190737 | 15 | 329 | 0.0 | 0.0 | 0.00 | 0.00 | 0.00 | 92 | 1013.6 |
| 20260503190209 | 15 | 329 | 0.0 | 0.0 | 0.00 | 0.00 | 0.00 | 92 | 1013.6 |
| 20260503185650 | 15 | 329 | 0.0 | 0.0 | 0.00 | 0.00 | 0.00 | 92 | 1013.6 |
| 20260503185143 | 15 | 329 | 0.0 | 0.0 | 0.00 | 0.00 | 0.00 | 92 | 1013.6 |
| 20260503184637 | 15 | 329 | 0.0 | 0.0 | 0.00 | 0.00 | 0.00 | 91 | 1013.6 |
| 20260503184337 | 15 | 329 | 0.0 | 0.0 | 0.00 | 0.00 | 0.00 | 91 | 1013.7 |
| 20260503183606 | 15 | 329 | 0.0 | 0.0 | 0.00 | 0.00 | 0.00 | 91 | 1013.7 |
| 20260503183051 | 15 | 329 | 0.0 | 0.0 | 0.00 | 0.00 | 0.00 | 91 | 1013.7 |
| 20260503182541 | 15 | 329 | 0.0 | 0.0 | 0.00 | 0.00 | 0.00 | 91 | 1013.7 |
| 20260503182036 | 15 | 329 | 0.0 | 0.0 | 0.00 | 0.00 | 0.00 | 91 | 1013.6 |
| 20260503181535 | 15 | 329 | 0.0 | 0.0 | 0.00 | 0.00 | 0.00 | 91 | 1013.6 |
| 20260503181035 | 15 | 329 | 0.0 | 0.0 | 0.00 | 0.00 | 0.00 | 91 | 1013.5 |
| 20260503180519 | 15 | 329 | 0.0 | 0.0 | 0.00 | 0.00 | 0.00 | 91 | 1013.5 |
| 20260503180002 | 15 | 329 | 0.0 | 0.0 | 0.00 | 0.00 | 0.00 | 90 | 1013.5 |
| 20260503175439 | 15 | 329 | 0.0 | 0.0 | 0.00 | 0.00 | 0.00 | 90 | 1013.6 |
| 20260503174941 | 15 | 329 | 0.0 | 0.0 | 0.00 | 0.00 | 0.00 | 90 | 1013.6 |
| 20260503174437 | 15 | 329 | 0.0 | 0.0 | 0.00 | 0.00 | 0.00 | 90 | 1013.6 |
| 20260503174154 | 15 | 329 | 0.0 | 0.0 | 0.00 | 0.00 | 0.00 | 90 | 1013.7 |
| 20260503173640 | 15 | 329 | 0.0 | 0.0 | 0.00 | 0.00 | 0.00 | 90 | 1013.6 |
| 20260503172907 | 15 | 329 | 0.0 | 0.0 | 0.00 | 0.00 | 0.00 | 90 | 1013.6 |
| 20260503172359 | 15 | 329 | 0.0 | 0.0 | 0.00 | 0.00 | 0.00 | 90 | 1013.7 |
| 20260503171815 | 15 | 329 | 0.0 | 0.0 | 0.00 | 0.00 | 0.00 | 90 | 1013.7 |
| 20260503171502 | 15 | 329 | 0.0 | 0.0 | 0.00 | 0.00 | 0.00 | 90 | 1013.7 |
| 20260503170636 | 15 | 329 | 0.0 | 0.0 | 0.00 | 0.00 | 0.00 | 90 | 1013.8 |
| 20260503170136 | 15 | 329 | 0.0 | 0.0 | 0.00 | 0.00 | 0.00 | 90 | 1013.9 |
| 20260503150946 | 16 | 329 | 0.0 | 0.0 | 0.00 | 0.00 | 0.00 | 87 | 1014.6 |
| 20260503150144 | 16 | 329 | 0.0 | 0.0 | 0.00 | 0.00 | 0.00 | 88 | 1014.8 |
| 20260503131322 | 17 | 329 | 0.0 | 0.0 | 0.00 | 0.00 | 0.00 | 85 | 1015.9 |
| 20260503130759 | 17 | 329 | 0.0 | 0.0 | 0.00 | 0.00 | 0.00 | 85 | 1015.9 |
| 20260503130251 | 17 | 329 | 0.0 | 0.0 | 0.00 | 0.00 | 0.00 | 85 | 1016.0 |
| 20260503110714 | 20 | 329 | 0.0 | 1.6 | 0.00 | 0.00 | 0.00 | 84 | 1016.3 |
| 20260503110144 | 20 | 329 | 0.0 | 1.6 | 0.00 | 0.00 | 0.00 | 84 | 1016.2 |
| 20260503090400 | 20 | 25 | 1.6 | 12.9 | 0.00 | 0.00 | 0.00 | 81 | 1016.1 |
| 20260503081458 | 21 | 50 | 1.6 | 9.7 | 0.00 | 0.00 | 0.00 | 78 | 1016.0 |
| 20260503080725 | 21 | 313 | 1.6 | 9.7 | 0.00 | 0.00 | 0.00 | 78 | 1016.0 |
| 20260503080218 | 21 | 37 | 1.6 | 8.0 | 0.00 | 0.00 | 0.00 | 78 | 1016.0 |
| 20260503072623 | 21 | 100 | 1.6 | 8.0 | 0.00 | 0.00 | 0.00 | 77 | 1015.9 |
| 20260503072103 | 21 | 340 | 1.6 | 9.7 | 0.00 | 0.00 | 0.00 | 77 | 1015.9 |
| 20260503071557 | 21 | 344 | 1.6 | 9.7 | 0.00 | 0.00 | 0.00 | 76 | 1015.8 |
| 20260503071047 | 22 | 67 | 1.6 | 8.0 | 0.00 | 0.00 | 0.00 | 76 | 1015.8 |
| 20260503070537 | 22 | 50 | 1.6 | 11.3 | 0.00 | 0.00 | 0.00 | 75 | 1015.8 |
| 20260503054912 | 23 | 81 | 1.6 | 11.3 | 0.00 | 0.00 | 0.00 | 64 | 1016.1 |
| 20260503054359 | 24 | 92 | 1.6 | 11.3 | 0.00 | 0.00 | 0.00 | 64 | 1016.2 |
| 20260503053900 | 24 | 344 | 1.6 | 9.7 | 0.00 | 0.00 | 0.00 | 62 | 1016.2 |
| 20260503053618 | 24 | 78 | 0.0 | 9.7 | 0.00 | 0.00 | 0.00 | 61 | 1016.2 |
| 20260503052859 | 25 | 355 | 0.0 | 8.0 | 0.00 | 0.00 | 0.00 | 58 | 1016.2 |
| 20260503052339 | 25 | 335 | 0.0 | 8.0 | 0.00 | 0.00 | 0.00 | 57 | 1016.3 |
| 20260503051833 | 25 | 42 | 0.0 | 6.4 | 0.00 | 0.00 | 0.00 | 56 | 1016.3 |
| 20260503051313 | 25 | 38 | 0.0 | 4.8 | 0.00 | 0.00 | 0.00 | 57 | 1016.3 |
| 20260503051032 | 25 | 5 | 0.0 | 4.8 | 0.00 | 0.00 | 0.00 | 57 | 1016.4 |
| 20260503050301 | 25 | 5 | 0.0 | 4.8 | 0.00 | 0.00 | 0.00 | 57 | 1016.4 |
| 20260503045756 | 25 | 294 | 0.0 | 3.2 | 0.00 | 0.00 | 0.00 | 56 | 1016.5 |
| 20260503045251 | 25 | 342 | 0.0 | 3.2 | 0.00 | 0.00 | 0.00 | 56 | 1016.5 |
| 20260503044749 | 25 | 339 | 0.0 | 4.8 | 0.00 | 0.00 | 0.00 | 57 | 1016.5 |
| 20260503044459 | 25 | 55 | 0.0 | 6.4 | 0.00 | 0.00 | 0.00 | 57 | 1016.5 |
| 20260503043720 | 25 | 59 | 0.0 | 6.4 | 0.00 | 0.00 | 0.00 | 59 | 1016.6 |
| 20260503043204 | 25 | 57 | 0.0 | 6.4 | 0.00 | 0.00 | 0.00 | 57 | 1016.6 |
| 20260503042653 | 25 | 57 | 0.0 | 8.0 | 0.00 | 0.00 | 0.00 | 58 | 1016.7 |
| 20260503042137 | 25 | 53 | 0.0 | 8.0 | 0.00 | 0.00 | 0.00 | 58 | 1016.7 |
| 20260503041624 | 25 | 45 | 0.0 | 3.2 | 0.00 | 0.00 | 0.00 | 59 | 1016.8 |
| 20260503041109 | 25 | 45 | 0.0 | 4.8 | 0.00 | 0.00 | 0.00 | 58 | 1016.8 |
| 20260503040806 | 25 | 46 | 0.0 | 8.0 | 0.00 | 0.00 | 0.00 | 57 | 1016.9 |
| 20260503040036 | 25 | 103 | 0.0 | 6.4 | 0.00 | 0.00 | 0.00 | 58 | 1016.9 |
| 20260503035521 | 24 | 119 | 0.0 | 3.2 | 0.00 | 0.00 | 0.00 | 59 | 1016.9 |
| 20260503035014 | 25 | 119 | 0.0 | 3.2 | 0.00 | 0.00 | 0.00 | 58 | 1017.0 |
| 20260503034728 | 25 | 346 | 0.0 | 3.2 | 0.00 | 0.00 | 0.00 | 58 | 1016.9 |
| 20260503034448 | 25 | 80 | 0.0 | 8.0 | 0.00 | 0.00 | 0.00 | 57 | 1017.1 |
| 20260503033709 | 25 | 46 | 1.6 | 8.0 | 0.00 | 0.00 | 0.00 | 56 | 1017.1 |
| 20260503032943 | 25 | 53 | 0.0 | 8.0 | 0.00 | 0.00 | 0.00 | 58 | 1017.1 |
| 20260503032432 | 25 | 61 | 0.0 | 6.4 | 0.00 | 0.00 | 0.00 | 58 | 1017.3 |
| 20260503031928 | 25 | 335 | 0.0 | 3.2 | 0.00 | 0.00 | 0.00 | 58 | 1017.5 |
| 20260503031413 | 25 | 334 | 0.0 | 3.2 | 0.00 | 0.00 | 0.00 | 57 | 1017.5 |
| 20260503030906 | 25 | 330 | 0.0 | 8.0 | 0.00 | 0.00 | 0.00 | 57 | 1017.6 |
| 20260503030622 | 25 | 355 | 1.6 | 9.7 | 0.00 | 0.00 | 0.00 | 58 | 1017.6 |
| 20260503025846 | 24 | 57 | 1.6 | 9.7 | 0.00 | 0.00 | 0.00 | 57 | 1017.8 |
| 20260503025337 | 25 | 65 | 1.6 | 9.7 | 0.00 | 0.00 | 0.00 | 57 | 1017.8 |
| 20260503024830 | 24 | 324 | 1.6 | 6.4 | 0.00 | 0.00 | 0.00 | 57 | 1017.9 |
| 20260503024324 | 24 | 331 | 0.0 | 8.0 | 0.00 | 0.00 | 0.00 | 57 | 1018.0 |
| 20260503023814 | 24 | 326 | 0.0 | 8.0 | 0.00 | 0.00 | 0.00 | 59 | 1018.0 |
| 20260503023531 | 24 | 34 | 1.6 | 8.0 | 0.00 | 0.00 | 0.00 | 57 | 1018.1 |
| 20260503022754 | 25 | 16 | 1.6 | 8.0 | 0.00 | 0.00 | 0.00 | 57 | 1018.2 |
| 20260503022244 | 25 | 355 | 0.0 | 6.4 | 0.00 | 0.00 | 0.00 | 55 | 1018.3 |
| 20260503021742 | 25 | 355 | 0.0 | 6.4 | 0.00 | 0.00 | 0.00 | 56 | 1018.3 |
| 20260503021232 | 25 | 355 | 0.0 | 4.8 | 0.00 | 0.00 | 0.00 | 56 | 1018.5 |
| 20260503020726 | 25 | 20 | 0.0 | 3.2 | 0.00 | 0.00 | 0.00 | 57 | 1018.7 |
| 20260503020217 | 25 | 22 | 0.0 | 4.8 | 0.00 | 0.00 | 0.00 | 57 | 1018.8 |
| 20260503015706 | 25 | 22 | 1.6 | 9.7 | 0.00 | 0.00 | 0.00 | 58 | 1018.9 |
| 20260503015200 | 24 | 83 | 0.0 | 9.7 | 0.00 | 0.00 | 0.00 | 59 | 1018.9 |
| 20260503014654 | 24 | 83 | 0.0 | 3.2 | 0.00 | 0.00 | 0.00 | 59 | 1019.0 |
| 20260503014146 | 23 | 84 | 0.0 | 9.7 | 0.00 | 0.00 | 0.00 | 61 | 1019.1 |
| 20260503013638 | 23 | 87 | 1.6 | 11.3 | 0.00 | 0.00 | 0.00 | 59 | 1019.2 |
| 20260503013603 | 23 | 92 | 1.6 | 11.3 | 0.00 | 0.00 | 0.00 | 58 | 1019.3 |
| 20260503012618 | 24 | 49 | 1.6 | 8.0 | 0.00 | 0.00 | 0.00 | 58 | 1019.3 |
| 20260503012112 | 24 | 38 | 1.6 | 12.9 | 0.00 | 0.00 | 0.00 | 59 | 1019.5 |
| 20260503011838 | 23 | 20 | 1.6 | 12.9 | 0.00 | 0.00 | 0.00 | 58 | 1019.7 |
| 20260503011056 | 24 | 91 | 1.6 | 9.7 | 0.00 | 0.00 | 0.00 | 60 | 1019.7 |
| 20260503010549 | 23 | 52 | 1.6 | 8.0 | 0.00 | 0.00 | 0.00 | 60 | 1019.8 |
| 20260503010040 | 23 | 51 | 1.6 | 9.7 | 0.00 | 0.00 | 0.00 | 60 | 1019.9 |
| 20260503005536 | 23 | 75 | 1.6 | 11.3 | 0.00 | 0.00 | 0.00 | 61 | 1020.0 |
| 20260503005033 | 23 | 78 | 0.0 | 6.4 | 0.00 | 0.00 | 0.00 | 61 | 1020.0 |
| 20260503004530 | 23 | 62 | 0.0 | 6.4 | 0.00 | 0.00 | 0.00 | 62 | 1020.0 |
| 20260503004030 | 23 | 59 | 0.0 | 3.2 | 0.00 | 0.00 | 0.00 | 63 | 1020.1 |
| 20260503003526 | 23 | 68 | 0.0 | 3.2 | 0.00 | 0.00 | 0.00 | 64 | 1020.2 |
| 20260503003022 | 23 | 68 | 0.0 | 8.0 | 0.00 | 0.00 | 0.00 | 63 | 1020.3 |
| 20260503002735 | 23 | 74 | 0.0 | 8.0 | 0.00 | 0.00 | 0.00 | 65 | 1020.4 |
| 20260503002016 | 23 | 74 | 0.0 | 1.6 | 0.00 | 0.00 | 0.00 | 67 | 1020.3 |
| 20260503001516 | 22 | 74 | 0.0 | 1.6 | 0.00 | 0.00 | 0.00 | 67 | 1020.2 |
| 20260503001232 | 22 | 74 | 0.0 | 1.6 | 0.00 | 0.00 | 0.00 | 67 | 1020.2 |
| 20260503000458 | 22 | 74 | 0.0 | 3.2 | 0.00 | 0.00 | 0.00 | 70 | 1020.2 |
| 20260502235951 | 22 | 74 | 0.0 | 3.2 | 0.00 | 0.00 | 0.00 | 69 | 1020.4 |
| 20260502235442 | 22 | 74 | 0.0 | 1.6 | 0.00 | 0.00 | 0.00 | 71 | 1020.3 |
| 20260502234932 | 21 | 74 | 0.0 | 0.0 | 0.00 | 0.00 | 0.00 | 76 | 1020.3 |
| 20260502234433 | 21 | 74 | 0.0 | 1.6 | 0.00 | 0.00 | 0.00 | 73 | 1020.4 |
| 20260502233916 | 21 | 74 | 0.0 | 11.3 | 0.00 | 0.00 | 0.00 | 73 | 1020.5 |
| 20260502233412 | 21 | 74 | 0.0 | 11.3 | 0.00 | 0.00 | 0.00 | 72 | 1020.6 |
| 20260502232842 | 21 | 90 | 0.0 | 1.6 | 0.00 | 0.00 | 0.00 | 73 | 1020.8 |
| 20260502232343 | 21 | 90 | 0.0 | 0.0 | 0.00 | 0.00 | 0.00 | 73 | 1020.8 |
| 20260502231840 | 21 | 90 | 0.0 | 3.2 | 0.00 | 0.00 | 0.00 | 74 | 1020.9 |
| 20260502231339 | 21 | 90 | 0.0 | 3.2 | 0.00 | 0.00 | 0.00 | 75 | 1020.8 |
| 20260502230833 | 21 | 92 | 0.0 | 3.2 | 0.00 | 0.00 | 0.00 | 75 | 1020.9 |
| 20260502230332 | 20 | 92 | 0.0 | 3.2 | 0.00 | 0.00 | 0.00 | 78 | 1020.9 |
| 20260502230028 | 20 | 97 | 0.0 | 3.2 | 0.00 | 0.00 | 0.00 | 79 | 1021.0 |
| 20260502225255 | 20 | 97 | 0.0 | 3.2 | 0.00 | 0.00 | 0.00 | 80 | 1020.9 |
| 20260502224756 | 20 | 98 | 0.0 | 1.6 | 0.00 | 0.00 | 0.00 | 81 | 1020.8 |
| 20260502224258 | 19 | 98 | 0.0 | 1.6 | 0.00 | 0.00 | 0.00 | 82 | 1020.9 |
| 20260502223753 | 19 | 98 | 0.0 | 0.0 | 0.00 | 0.00 | 0.00 | 83 | 1021.0 |
| 20260502223248 | 19 | 98 | 0.0 | 0.0 | 0.00 | 0.00 | 0.00 | 84 | 1021.0 |
| 20260502222741 | 18 | 98 | 0.0 | 0.0 | 0.00 | 0.00 | 0.00 | 86 | 1020.9 |
| 20260502222234 | 18 | 98 | 0.0 | 0.0 | 0.00 | 0.00 | 0.00 | 87 | 1020.8 |
| 20260502221731 | 18 | 98 | 0.0 | 0.0 | 0.00 | 0.00 | 0.00 | 89 | 1020.8 |
| 20260502221221 | 17 | 98 | 0.0 | 0.0 | 0.00 | 0.00 | 0.00 | 91 | 1020.7 |
| 20260502220924 | 17 | 98 | 0.0 | 0.0 | 0.00 | 0.00 | 0.00 | 93 | 1020.7 |
| 20260502220154 | 16 | 98 | 0.0 | 0.0 | 0.00 | 0.00 | 0.00 | 94 | 1020.6 |
| 20260502215653 | 15 | 98 | 0.0 | 0.0 | 0.00 | 0.00 | 0.00 | 93 | 1020.5 |
| 20260502215147 | 15 | 98 | 0.0 | 0.0 | 0.00 | 0.00 | 0.00 | 93 | 1020.4 |
| 20260502214639 | 15 | 98 | 0.0 | 0.0 | 0.00 | 0.00 | 0.00 | 93 | 1020.4 |
| 20260502214135 | 15 | 98 | 0.0 | 0.0 | 0.00 | 0.00 | 0.00 | 92 | 1020.4 |
| 20260502213619 | 15 | 98 | 0.0 | 0.0 | 0.00 | 0.00 | 0.00 | 92 | 1020.4 |
| 20260502213119 | 14 | 98 | 0.0 | 0.0 | 0.00 | 0.00 | 0.00 | 92 | 1020.3 |
| 20260502212608 | 14 | 98 | 0.0 | 0.0 | 0.00 | 0.00 | 0.00 | 92 | 1020.1 |
| 20260502212042 | 14 | 98 | 0.0 | 0.0 | 0.00 | 0.00 | 0.00 | 92 | 1020.1 |
| 20260502211540 | 14 | 98 | 0.0 | 0.0 | 0.00 | 0.00 | 0.00 | 92 | 1020.1 |
| 20260502211042 | 14 | 98 | 0.0 | 0.0 | 0.00 | 0.00 | 0.00 | 91 | 1020.2 |
| 20260502210537 | 14 | 98 | 0.0 | 0.0 | 0.00 | 0.00 | 0.00 | 91 | 1020.0 |
| 20260502210038 | 14 | 98 | 0.0 | 0.0 | 0.00 | 0.00 | 0.00 | 91 | 1020.1 |
| 20260502205537 | 14 | 98 | 0.0 | 0.0 | 0.00 | 0.00 | 0.00 | 91 | 1020.0 |
| 20260502205040 | 14 | 98 | 0.0 | 0.0 | 0.00 | 0.00 | 0.00 | 91 | 1020.0 |
| 20260502205011 | 14 | 98 | 0.0 | 0.0 | 0.00 | 0.00 | 0.00 | 91 | 1019.8 |
| 20260502204027 | 14 | 98 | 0.0 | 0.0 | 0.00 | 0.00 | 0.00 | 91 | 1019.9 |
| 20260502203525 | 14 | 98 | 0.0 | 0.0 | 0.00 | 0.00 | 0.00 | 91 | 1019.9 |
| 20260502203025 | 14 | 98 | 0.0 | 0.0 | 0.00 | 0.00 | 0.00 | 91 | 1019.9 |